User: anonymous   Login
Location: Mount Tamalpais State Park
(37.9108°N, 122.6128°W)
Time: 19:50:58
(UTC-07:00)
Language:

Cosmos 1814 Rocket - Orbit

View from above orbital plane
View from above orbital plane
View from above satellite
View from above satellite

Ground track
Ground track

The orbit data is extracted from the following two-line orbital elements,

1 17304U 87006B   15185.86368488  .00000047  00000-0  24384-4 0  9993
2 17304 074.0600 321.6744 0030241 337.5907 022.3923 14.37508525490795
Epoch (UTC): 04 July 2015 20:43:42
Eccentricity: 0.0030241
inclination: 74.0600°
perigee height: 745 km
apogee height: 788 km
right ascension of ascending node: 321.6744°
argument of perigee: 337.5907°
revolutions per day: 14.37508525
mean anomaly at epoch: 22.3923°
orbit number at epoch: 49079

The dashed part of the orbit path shows where the satellite is in the earth's shadow,  

DLR